364P/PanSTARRS (2023)

Japanese version
Home page
Updated on March 27, 2023

---------------------------------------------------------------------

* Profile

* Pictures

* Orbital Elements

Epoch 2023 Feb. 25.0 TT = JDT 2460000.5
T 2023 May 14.01622 TT                                  Rudenko
q   0.8013047            (2000.0)            P               Q
n   0.20161963     Peri.  212.00945     -0.21364480     +0.96507509
a   2.8803649      Node    46.15505     -0.84612625     -0.10523010
e   0.7218044      Incl.   12.13500     -0.48828912     -0.23990976
P   4.89
>From 1017 observations 2013 Feb. 1-2023 Mar. 20, mean residual 0".7.

* Finding Charts

* Magnitudes Graph

        H = 16.5  G = 0.15                       [   ,-58]  (             - 2023 Mar. 17)
        m1 = 16.0 + 5 log d + 25.0 log r(t - 5)  [-58, 74]  (2023 Mar. 17 - 2023 July 27)
        H = 16.5  G = 0.15                       [ 74,   ]  (2023 July 27 -             )

---------------------------------------------------------------------

The orbital elements are published on M.P.E.C. 2023-F81.
The charts are made with StellaNavigator Ver.10 (AstroArts).
The magnitudes graphs are made with Comet for Windows.

---------------------------------------------------------------------

Copyright(C) Seiichi Yoshida (comet@aerith.net). All rights reserved.